Weather History for York, PA

Change the Weather History Date:

Monday, April 8, 2013

  Actual Average Record
Temperature  
Mean Temperature 62 °F -  
Max Temperature 79 °F 0 °F 82 °F (1999)
Min Temperature 44 °F - 25 °F (2007)
Degree Days  
Heating Degree Days 4    
Growing Degree Days 12 (Base 50)    
Moisture  
Dew Point 43 °F    
Average Humidity 48    
Maximum Humidity 80    
Minimum Humidity 25    
Precipitation  
Precipitation 0.00 in - - ()
Sea Level Pressure  
Sea Level Pressure 30.00 in    
Wind  
Wind Speed 5 mph (South)    
Max Wind Speed 14 mph    
Max Gust Speed 17 mph    
Visibility 10 miles    
Events      
Averages and records for this station are not official NWS values.
T = Trace of Precipitation, MM = Missing Value Source: NWS Daily Summary

Daily Weather History Graph

Daily Weather History Graph

Search for Another Location

Airport:

Trip Planner

Search our weather history database for the weather conditions in past years. The results will help you decide how hot, cold, wet, or windy it might be!

Date:

Astronomy

Apr. 08, 2013 Rise Set
Actual Time 6:40 AM EDT 7:39 PM EDT
Civil Twilight 6:12 AM EDT 8:06 PM EDT
Nautical Twilight 5:39 AM EDT 8:39 PM EDT
Astronomical Twilight 5:05 AM EDT 9:13 PM EDT
Moon 5:28 AM EDT (4/8) 6:11 PM EDT (4/8)
Length of Visible Light 13h 54m
Length of Day
12h 58m
Waning Crescent, 3% of the Moon is Illuminated
Apr 8
Waning Crescent
Apr 10
New
Apr 18
First Quarter
Apr 25
Full
May 2
Last Quarter

Hourly Weather History & Observations

Time (EDT) Temp. Dew Point Humidity Pressure Visibility Wind Dir Wind Speed Gust Speed Precip Events Conditions
12:53 AM 60.1 °F 37.9 °F 44% 29.99 in 10.0 mi South 8.1 mph - N/A   Partly Cloudy
1:53 AM 61.0 °F 39.0 °F 44% 29.99 in 10.0 mi SSW 8.1 mph - N/A   Overcast
2:53 AM 54.0 °F 39.9 °F 59% 30.01 in 10.0 mi North 5.8 mph - N/A   Clear
3:53 AM 48.0 °F 39.0 °F 71% 30.01 in 10.0 mi Calm Calm - N/A   Clear
4:53 AM 44.1 °F 37.9 °F 79% 30.01 in 10.0 mi Calm Calm - N/A   Clear
5:53 AM 46.9 °F 41.0 °F 80% 30.03 in 10.0 mi Calm Calm - N/A   Scattered Clouds
6:53 AM 46.9 °F 39.9 °F 77% 30.05 in 10.0 mi Calm Calm - N/A   Mostly Cloudy
7:53 AM 48.0 °F 42.1 °F 80% 30.07 in 10.0 mi Calm Calm - N/A   Scattered Clouds
8:53 AM 57.9 °F 42.1 °F 56% 30.06 in 10.0 mi Calm Calm - N/A   Clear
9:53 AM 64.9 °F 45.0 °F 48% 30.07 in 10.0 mi East 3.5 mph - N/A   Clear
10:53 AM 69.1 °F 46.0 °F 44% 30.06 in 10.0 mi Calm Calm - N/A   Clear
11:53 AM 71.1 °F 46.0 °F 41% 30.06 in 10.0 mi ESE 4.6 mph - N/A   Clear
12:53 PM 75.0 °F 46.0 °F 36% 30.03 in 10.0 mi SW 11.5 mph 17.3 mph N/A   Clear
1:53 PM 75.9 °F 43.0 °F 31% 30.01 in 10.0 mi Variable 5.8 mph - N/A   Partly Cloudy
2:53 PM 77.0 °F 44.1 °F 31% 29.98 in 10.0 mi SSE 9.2 mph 16.1 mph N/A   Scattered Clouds
3:53 PM 79.0 °F 42.1 °F 27% 29.96 in 10.0 mi Variable 5.8 mph 16.1 mph N/A   Scattered Clouds
4:53 PM 78.1 °F 39.9 °F 25% 29.95 in 10.0 mi SSW 13.8 mph 17.3 mph N/A   Partly Cloudy
5:53 PM 75.0 °F 39.9 °F 28% 29.95 in 10.0 mi SSW 9.2 mph - N/A   Partly Cloudy
6:53 PM 73.0 °F 44.1 °F 35% 29.95 in 10.0 mi SSE 9.2 mph - N/A   Scattered Clouds
7:53 PM 71.1 °F 42.1 °F 35% 29.96 in 10.0 mi SSE 8.1 mph - N/A   Mostly Cloudy
8:53 PM 69.1 °F 45.0 °F 42% 29.96 in 10.0 mi South 4.6 mph 16.1 mph N/A   Scattered Clouds
9:53 PM 68.0 °F 46.9 °F 47% 29.96 in 10.0 mi South 6.9 mph - N/A   Partly Cloudy
10:53 PM 66.9 °F 48.0 °F 51% 29.95 in 10.0 mi South 9.2 mph - N/A   Scattered Clouds
11:53 PM 68.0 °F 46.9 °F 47% 29.94 in 10.0 mi South 6.9 mph - N/A   Mostly Cloudy